TimeCST,TemperatureF,Dew PointF,Humidity,Sea Level PressureIn,VisibilityMPH,Wind Direction,Wind SpeedMPH,Gust SpeedMPH,PrecipitationIn,Events,Conditions,WindDirDegrees,DateUTC
12:15 AM,3.0,-9.9,55,29.64,10.0,Calm,Calm,-,N/A,,Clear,0,2014-01-26 06:15:00
12:35 AM,2.3,-9.6,58,29.62,10.0,ESE,3.5,-,N/A,,Clear,120,2014-01-26 06:35:00
12:55 AM,2.8,-9.0,58,29.61,10.0,Calm,Calm,-,N/A,,Clear,0,2014-01-26 06:55:00
1:15 AM,3.2,-9.6,55,29.62,10.0,Calm,Calm,-,N/A,,Mostly Cloudy,0,2014-01-26 07:15:00
1:35 AM,3.2,-9.0,57,29.61,10.0,Calm,Calm,-,N/A,,Overcast,0,2014-01-26 07:35:00
1:55 AM,3.6,-8.7,57,29.61,10.0,South,3.5,-,N/A,,Overcast,170,2014-01-26 07:55:00
2:15 AM,3.7,-8.0,58,29.61,10.0,Calm,Calm,-,N/A,,Overcast,0,2014-01-26 08:15:00
2:35 AM,3.7,-7.6,59,29.59,7.0,SSE,3.5,-,N/A,Snow,Light Snow,150,2014-01-26 08:35:00
2:55 AM,3.7,-5.6,65,29.60,2.5,South,3.5,-,N/A,Snow,Light Snow,180,2014-01-26 08:55:00
3:15 AM,3.7,-3.8,71,29.59,1.5,South,4.6,-,N/A,Snow,Light Snow,180,2014-01-26 09:15:00
3:35 AM,3.9,-2.6,74,29.58,1.5,Calm,Calm,-,N/A,Snow,Light Snow,0,2014-01-26 09:35:00
3:55 AM,3.7,-2.2,76,29.56,1.0,East,3.5,-,N/A,Snow,Snow,90,2014-01-26 09:55:00
4:15 AM,3.7,-2.2,76,29.55,1.2,East,3.5,-,N/A,Snow,Light Snow,80,2014-01-26 10:15:00
4:35 AM,3.7,-1.8,78,29.53,1.5,East,3.5,-,N/A,Snow,Light Snow,90,2014-01-26 10:35:00
4:55 AM,3.7,-1.7,78,29.51,1.8,East,4.6,-,N/A,Snow,Light Snow,80,2014-01-26 10:55:00
5:15 AM,3.9,-1.3,79,29.51,2.0,East,4.6,-,N/A,Snow,Light Snow,80,2014-01-26 11:15:00
5:35 AM,4.1,-1.3,78,29.49,3.0,East,4.6,-,N/A,Snow,Light Snow,80,2014-01-26 11:35:00
5:55 AM,4.1,-1.3,78,29.48,3.0,East,4.6,-,N/A,Snow,Light Snow,80,2014-01-26 11:55:00
6:15 AM,4.1,-1.3,78,29.46,2.0,East,5.8,-,N/A,Snow,Light Snow,100,2014-01-26 12:15:00
6:35 AM,4.1,-1.3,78,29.47,2.0,East,3.5,-,N/A,Snow,Light Snow,80,2014-01-26 12:35:00
6:55 AM,4.5,-1.3,77,29.46,2.5,East,4.6,-,N/A,Snow,Light Snow,80,2014-01-26 12:55:00
7:15 AM,4.5,-0.9,78,29.44,3.0,East,5.8,-,N/A,Snow,Light Snow,100,2014-01-26 13:15:00
7:35 AM,4.8,-0.8,78,29.43,1.8,ESE,5.8,-,N/A,Snow,Light Snow,110,2014-01-26 13:35:00
7:55 AM,5.0,-0.8,77,29.40,5.0,SE,6.9,-,N/A,Snow,Light Snow,130,2014-01-26 13:55:00
8:15 AM,5.4,-0.4,77,29.41,2.5,ESE,4.6,-,N/A,Snow,Light Snow,120,2014-01-26 14:15:00
8:35 AM,5.5,-0.4,77,29.40,2.0,SE,4.6,-,N/A,Snow,Light Snow,130,2014-01-26 14:35:00
8:55 AM,5.9,-0.0,77,29.41,2.0,Calm,Calm,-,N/A,Snow,Light Snow,0,2014-01-26 14:55:00
9:15 AM,6.3,0.1,76,29.40,2.0,SSE,3.5,-,N/A,Snow,Light Snow,150,2014-01-26 15:15:00
9:35 AM,6.8,0.5,75,29.38,1.5,SE,3.5,-,N/A,Snow,Light Snow,140,2014-01-26 15:35:00
9:55 AM,7.5,0.7,74,29.39,0.8,Calm,Calm,-,N/A,Snow,Snow,0,2014-01-26 15:55:00
10:15 AM,8.1,1.4,74,29.39,0.8,South,4.6,-,N/A,Snow,Light Snow,190,2014-01-26 16:15:00
10:35 AM,8.6,1.0,71,29.33,2.0,SE,5.8,-,N/A,Snow,Light Snow,140,2014-01-26 16:35:00
10:55 AM,10.2,0.7,65,29.34,5.0,SSW,4.6,-,N/A,Snow,Light Snow,200,2014-01-26 16:55:00
11:15 AM,11.5,1.0,63,29.33,7.0,South,4.6,-,N/A,Snow,Light Snow,190,2014-01-26 17:15:00
11:35 AM,10.4,1.9,69,29.33,7.0,SSW,4.6,-,N/A,Snow,Light Snow,200,2014-01-26 17:35:00
11:55 AM,11.1,2.8,69,29.34,3.0,West,6.9,-,N/A,Snow,Light Snow,260,2014-01-26 17:55:00
12:15 PM,11.7,3.2,69,29.33,7.0,SW,6.9,-,N/A,Snow,Light Snow,230,2014-01-26 18:15:00
12:35 PM,12.7,5.0,71,29.31,10.0,WSW,10.4,18.4,N/A,,Overcast,240,2014-01-26 18:35:00
12:55 PM,13.1,5.7,72,29.31,7.0,WSW,12.7,-,N/A,Snow,Light Snow,250,2014-01-26 18:55:00
1:15 PM,13.1,5.7,72,29.31,3.0,West,10.4,17.3,N/A,Snow,Light Snow,260,2014-01-26 19:15:00
1:35 PM,14.0,6.3,71,29.31,4.0,West,13.8,23.0,N/A,Snow,Light Snow,260,2014-01-26 19:35:00
1:55 PM,14.4,6.4,71,29.31,5.0,West,15.0,19.6,N/A,Snow,Light Snow,260,2014-01-26 19:55:00
2:15 PM,14.9,6.8,70,29.31,7.0,West,16.1,-,N/A,Snow,Light Snow,260,2014-01-26 20:15:00
2:35 PM,15.4,7.0,69,29.32,7.0,West,12.7,17.3,N/A,,Overcast,270,2014-01-26 20:35:00
2:55 PM,15.8,7.3,69,29.33,4.0,West,13.8,25.3,N/A,Snow,Light Snow,270,2014-01-26 20:55:00
3:15 PM,16.2,7.3,68,29.35,7.0,West,16.1,21.9,N/A,,Overcast,270,2014-01-26 21:15:00
3:35 PM,16.3,7.3,68,29.36,4.0,West,12.7,26.5,N/A,,Haze,280,2014-01-26 21:35:00
3:55 PM,16.3,7.9,69,29.37,2.5,West,16.1,21.9,N/A,Snow,Light Snow,280,2014-01-26 21:55:00
4:15 PM,15.6,7.7,71,29.39,1.5,WNW,16.1,25.3,N/A,Snow,Light Snow,290,2014-01-26 22:15:00
4:35 PM,15.6,5.2,63,29.38,4.0,West,13.8,24.2,N/A,,Haze,270,2014-01-26 22:35:00
4:55 PM,14.9,4.5,63,29.40,10.0,WNW,8.1,17.3,N/A,,Overcast,290,2014-01-26 22:55:00
5:15 PM,14.7,3.9,62,29.41,10.0,WNW,6.9,16.1,N/A,,Overcast,290,2014-01-26 23:15:00
5:35 PM,14.5,3.7,62,29.42,7.0,WNW,12.7,21.9,N/A,,Overcast,300,2014-01-26 23:35:00
5:55 PM,14.0,3.6,63,29.44,10.0,WNW,9.2,-,N/A,,Overcast,290,2014-01-26 23:55:00
6:15 PM,13.8,3.9,65,29.45,7.0,WNW,9.2,17.3,N/A,,Overcast,300,2014-01-27 00:15:00
6:35 PM,13.5,4.1,66,29.46,7.0,WNW,11.5,17.3,N/A,,Overcast,290,2014-01-27 00:35:00
6:55 PM,13.5,3.7,65,29.47,10.0,WNW,10.4,20.7,N/A,,Overcast,300,2014-01-27 00:55:00
7:15 PM,13.5,3.7,65,29.49,5.0,NW,11.5,-,N/A,,Haze,320,2014-01-27 01:15:00
7:35 PM,12.7,2.1,63,29.50,7.0,NW,17.3,21.9,N/A,,Overcast,320,2014-01-27 01:35:00
7:55 PM,11.8,2.1,65,29.52,4.0,NW,17.3,25.3,N/A,,Haze,310,2014-01-27 01:55:00
8:15 PM,10.8,-3.3,53,29.54,3.0,NW,18.4,31.1,N/A,,Haze,310,2014-01-27 02:15:00
8:35 PM,10.4,-3.8,53,29.56,5.0,NW,11.5,26.5,N/A,,Haze,310,2014-01-27 02:35:00
8:55 PM,9.9,-2.2,58,29.58,7.0,NW,11.5,25.3,N/A,,Overcast,310,2014-01-27 02:55:00
9:15 PM,9.0,-2.2,61,29.60,4.0,WNW,18.4,26.5,N/A,,Haze,300,2014-01-27 03:15:00
9:35 PM,9.0,-2.9,59,29.62,7.0,WNW,23.0,32.2,N/A,,Overcast,300,2014-01-27 03:35:00
9:55 PM,8.2,-2.4,62,29.64,5.0,WNW,13.8,24.2,N/A,,Haze,300,2014-01-27 03:55:00
10:15 PM,7.7,-2.2,64,29.66,7.0,WNW,18.4,23.0,N/A,,Overcast,300,2014-01-27 04:15:00
10:35 PM,7.2,-3.6,61,29.67,4.0,WNW,21.9,29.9,N/A,,Haze,300,2014-01-27 04:35:00
10:55 PM,6.4,-5.4,58,29.69,5.0,WNW,18.4,26.5,N/A,,Haze,300,2014-01-27 04:55:00
11:15 PM,5.7,-6.3,58,29.71,10.0,WNW,15.0,24.2,N/A,,Clear,290,2014-01-27 05:15:00
11:35 PM,5.4,-7.6,55,29.74,10.0,WNW,12.7,24.2,N/A,,Clear,300,2014-01-27 05:35:00
11:55 PM,4.6,-8.1,56,29.76,10.0,WNW,17.3,24.2,N/A,,Clear,300,2014-01-27 05:55:00